Regional Weather Roundup
Issued by NWS San Angelo, TX

Home | Current Version | Previous Version | Text Only | Print | Product List | Glossary On
Versions: 1 2 3 4 5 6 7 8 9 10 11 12 13 14 15 16 17 18 19 20 21 22 23 24 25 26 27 28 29 30 31 32 33 34 35 36 37 38 39 40 41 42 43 44 45 46 47 48 49 50
000
ASUS44 KSJT 150011
RWRSJT
WEST CENTRAL TEXAS REGIONAL WEATHER ROUNDUP
NATIONAL WEATHER SERVICE SAN ANGELO TX
600 PM CST SUN FEB 14 2016

NOTE: "FAIR" INDICATES FEW OR NO CLOUDS BELOW 12,000 FEET WITH NO
SIGNIFICANT WEATHER AND/OR OBSTRUCTIONS TO VISIBILITY.

TXZ049-054-064>066-071>073-076>078-098-099-113-114-127-128-139-140-
154-155-168>170-150100
...LOCATIONS ACROSS WEST CENTRAL TEXAS...

CITY           SKY/WX    TMP DP  RH WIND       PRES   REMARKS
SAN ANGELO     CLEAR     70  39  32 NW9       29.82S
ABILENE        CLEAR     59  40  49 NW5       29.85S
DYESS AFB      CLEAR     59  41  50 N2        29.83F
JUNCTION       CLOUDY    72  49  44 S8        29.83F
SWEETWATER     CLEAR     60  37  41 N5        29.88S
BROWNWOOD      CLEAR     68  48  49 NW7       29.82S
COLEMAN        CLEAR     65  44  47 N9        29.84S
SONORA         CLEAR     72  46  40 CALM      29.88S
OZONA          FAIR      72  32  23 NW7       29.87S
BRADY          NOT AVBL
$$

TEXAS PANHANDLE/OKLAHOMA PANHANDLE

CITY           SKY/WX    TMP DP  RH WIND       PRES   REMARKS
AMARILLO       CLOUDY    53  21  28 SE6       29.89F
BORGER         CLOUDY    55  19  24 CALM      29.90R
CANADIAN       CLOUDY    56  24  28 CALM      29.90R
DALHART        CLOUDY    52  20  28 SE7       29.87F
DUMAS          CLOUDY    51  21  30 E6        29.88F
GUYMON         NOT AVBL
HEREFORD       NOT AVBL
PAMPA          CLOUDY    50  21  32 SW8       29.90S
PERRYTON       CLOUDY    54  25  31 CALM      29.91R
$$

SOUTHERN PANHANDLE/SOUTH PLAINS/ROLLING PLAINS

CITY           SKY/WX    TMP DP  RH WIND       PRES   REMARKS
LUBBOCK        PTCLDY    60  13  15 W3        29.89R
SNYDER           N/A     62  32  32 N6        29.87R
CHILDRESS      CLEAR     59  22  24 NE5       29.88R
SEMINOLE       CLEAR     62  24  23 W5        29.90S
$$

PERMIAN BASIN

CITY           SKY/WX    TMP DP  RH WIND       PRES   REMARKS
MIDLAND        CLEAR     65  29  25 NW7       29.88S
ODESSA         CLEAR     66  26  22 NW5       29.89F
WINK           CLEAR     68  24  19 NW3       29.87S
$$

FAR WEST/SOUTHWEST MOUNTAINS/TRANS PECOS

CITY           SKY/WX    TMP DP  RH WIND       PRES   REMARKS
ALPINE         CLEAR     65  25  22 E7        30.00S
DRYDEN           N/A     77  29  17 VRB7      29.82S
EL PASO        PTCLDY    74   9   8 W9        29.93R
FORT STOCKTON  CLEAR     66  30  26 NW7       29.90S
GUADALUPE PASS CLOUDY    67   6   9 SW18      29.97S
MARFA          CLEAR     70  12  10 W15       29.96F
PECOS          CLEAR     67  26  21 CALM      29.88F
$$

DALLAS/FORT WORTH METROPLEX

CITY           SKY/WX    TMP DP  RH WIND       PRES   REMARKS
DFW AIRPORT    CLOUDY    65  53  65 E3        29.82S
FTW MEACHAM    CLOUDY    67  52  58 E6        29.82S
DAL-EXECUTIVE  CLOUDY    66  54  65 S6        29.82F
GRAND PRAIRIE  NOT AVBL
ADDISON        CLOUDY    64  55  72 E6        29.84
MESQUITE       CLOUDY    64  54  68 S7        29.84S
LANCASTER      CLOUDY    66  53  61 S5        29.84S
$$

NORTH CENTRAL TEXAS

CITY           SKY/WX    TMP DP  RH WIND       PRES   REMARKS
SHRMAN/DENISON PTCLDY    62  51  68 S5        29.85S
GAINESVILLE    PTCLDY    60  51  72 SE5       29.87R
BRIDGEPORT     PTCLDY    63  47  56 W5        29.86R
DENTON         PTCLDY    64  52  64 SE7       29.83S
WAXAHACHIE     CLOUDY    66  56  68 S8        29.84S
GRANBURY       CLOUDY    69  51  53 CALM      29.83S
$$

WESTERN NORTH TEXAS

CITY           SKY/WX    TMP DP  RH WIND       PRES   REMARKS
WICHITA FALLS  PTCLDY    57  46  66 N7        29.84F
VERNON         CLOUDY    56  36  45 N8        29.88R
BRECKENRIDGE   CLEAR     61  40  46 N3        29.84S
COMANCHE       CLEAR     69  51  53 CALM      29.82S
$$

CENTRAL AND SOUTH CENTRAL TEXAS

CITY           SKY/WX    TMP DP  RH WIND       PRES   REMARKS
AUSTIN/BERGSTM CLOUDY    70  53  54 S5        29.83S
WACO           MOCLDY    68  53  58 S12       29.83S
HILLSBORO      CLOUDY    68  52  57 S12       29.83S
TEMPLE         PTCLDY    70  54  56 S9        29.84S
KILLEEN-GRAY   MOCLDY    67  54  63 S7        29.82F
FORT HOOD      MOCLDY    68  53  58 S8        29.81F
GEORGETOWN     PTCLDY    70  52  52 S7        29.84R
LAGO VISTA     MOCLDY    69  54  59 S7        29.86S
SAN MARCOS     CLEAR     72  52  49 S9        29.84F
NEW BRAUNFELS  CLOUDY    71  53  52 S10       29.82F
RANDOLPH AFB   CLOUDY    71  53  52 S6        29.83S
SAN ANTONIO    CLOUDY    71  53  52 SE12      29.83S
STINSON        MOCLDY    73  52  47 SE7       29.80F
PLEASANTON     NOT AVBL
LA GRANGE      CLOUDY    71  57  60 S10G17    29.85S
GIDDINGS       CLOUDY    71  53  53 S9G16     29.89S
$$

EAST TEXAS

CITY           SKY/WX    TMP DP  RH WIND       PRES   REMARKS
PARIS          CLOUDY    57  45  62 E9        29.88S
CLARKSVILLE    NOT AVBL
TYLER          CLOUDY    67  52  58 SE3       29.85F
LONGVIEW       CLOUDY    65  53  65 SE6       29.86S
PALESTINE      MOCLDY    71  52  51 S8        29.86S
NACOGDOCHES    CLOUDY    68  48  49 S7        29.87R
$$

TEXAS HILL COUNTRY AND EDWARDS PLATEAU

CITY           SKY/WX    TMP DP  RH WIND       PRES   REMARKS
LLANO          CLOUDY    70  54  56 S6        29.86F
HORSESHOE BAY  FAIR      69  56  62 S3        29.85S
KERRVILLE      CLOUDY    69  58  69 CALM      29.86S
FREDERICKSBRG  PTCLDY    65  54  65 CALM      29.86F
ROCKSPRINGS    PTCLDY    64  54  68 CALM      29.88F
HONDO          MOCLDY    73  52  47 SE7       29.83S
UVALDE         PTCLDY    72  54  53 NE3       29.83R
DEL RIO        PTCLDY    73  51  46 CALM      29.81S
$$

SOUTHEAST TEXAS

CITY           SKY/WX    TMP DP  RH WIND       PRES   REMARKS
COLLEGE STN    PTCLDY    70  55  59 S15       29.86R
CALDWELL       MOCLDY    70  52  52 SE10      29.88S
CROCKETT       CLOUDY    68  54  60 S12G20    29.88F
BRENHAM        MOCLDY    72  56  58 S10G17    29.88S
HUNTSVILLE     PTCLDY    70  55  59 S9        29.87F
CONROE         PTCLDY    70  52  52 S14       29.89F
HOUSTON BUSH   MOCLDY    69  55  60 S14G20    29.91S
HOUSTON HOBBY  MOCLDY    69  58  67 S8        29.91F
PERLAND        CLOUDY    70  59  68 S8        29.95R
WHARTON        CLOUDY    68  59  71 SE16G22   29.90F
$$

THE UPPER TEXAS COAST

CITY           SKY/WX    TMP DP  RH WIND       PRES   REMARKS
ORANGE         PTCLDY    65  57  75 S5        29.98S
PORT ARTHUR    CLOUDY    66  60  81 S8        29.96R
GALVESTON      MOCLDY    63  60  90 SE10      29.94S
ANGLETON         N/A     68  60  75 S12       29.92F
BAY CITY       CLOUDY    69  62  79 S8        29.91F
$$

TEXAS COASTAL BEND, RIO GRANDE PLAINS DEEP SOUTH TEXAS

CITY           SKY/WX    TMP DP  RH WIND       PRES   REMARKS
VICTORIA       MOCLDY    69  60  73 SE21      29.87F
BEEVILLE       FAIR      71  61  69 SE13      29.84R
ROCKPORT       PTCLDY    70  61  73 SE12      29.86F
PORT ARANSAS   MOCLDY    67  63  89 SE14      29.86F
PORT LAVACA    MOCLDY    69  62  77 S15       29.88F
CORPUS CHRISTI CLOUDY    72  58  61 S29G38    29.84R
KINGSVILLE NAS MOCLDY    72  63  73 SE20G26   29.81R
COTULLA        PTCLDY    80  50  34 SE7       29.78F
LAREDO         PTCLDY    81  49  32 SE8       29.78S
BROWNSVILLE    PTCLDY    71  62  73 S25G32    29.85F
PORT ISABEL    MOCLDY    72  61  68 S23G31    29.83F
HEBBRONVILLE   NOT AVBL
MCALLEN        PTCLDY    77  59  53 SE22G33   29.80S
WESLACO        MOCLDY    74  58  56 S17G23    29.81S
FALFURRIAS     PTCLDY    78  55  44 SE16      29.80S
EDINBURG       PTCLDY    78  57  48 S16G23    29.81R
$$



USA.gov is the U.S. government's official web portal to all federal, state and local government web resources and services.